Plattsmouth, NE

1:43 AM CDT on September 20, 2017 (GMT -0500)
Plattsmouth Municipal

Weather History for KPMV - May, 2014

Change the Weather History Date:

Tuesday, May 13, 2014

  Actual Average (KOFF) Record (KOFF)
Temperature  
Mean Temperature 52 °F -  
Max Temperature 61 °F 71 °F 89 °F (2001)
Min Temperature 43 °F 50 °F 32 °F (1997)
Degree Days  
Heating Degree Days 13    
Growing Degree Days 2 (Base 50)    
Moisture  
Dew Point 35 °F    
Average Humidity 55    
Maximum Humidity 86    
Minimum Humidity 31    
Precipitation  
Precipitation 0.00 in - - ()
Sea Level Pressure  
Sea Level Pressure 30.18 in    
Wind  
Wind Speed 13 mph (NW)    
Max Wind Speed 23 mph    
Max Gust Speed 28 mph    
Visibility 10 miles    
Events      
Averages and records for this station are not official NWS values.
T = Trace of Precipitation, MM = Missing Value Source: NWS Daily Summary

Daily Weather History Graph

Daily Weather History Graph

Search for Another Location

Airport or City:

Trip Planner

Search our weather history database for the weather conditions in past years. The results will help you decide how hot, cold, wet, or windy it might be!

Date:

Astronomy

May. 13, 2014 Rise Set
Actual Time 6:07 AM CDT 8:32 PM CDT
Civil Twilight 5:36 AM CDT 9:03 PM CDT
Nautical Twilight 4:58 AM CDT 9:42 PM CDT
Astronomical Twilight 4:15 AM CDT 10:25 PM CDT
Moon 7:34 PM CDT (5/13) 5:25 AM CDT (5/13)
Length of Visible Light 15h 26m
Length of Day
14h 24m
Waxing Gibbous, 99% of the Moon is Illuminated
May 13
Waxing Gibbous
May 14
Full
May 21
Last Quarter
May 28
New
Jun 5
First Quarter

Hourly Weather History & Observations

Time (CDT) Temp. Windchill Dew Point Humidity Pressure Visibility Wind Dir Wind Speed Gust Speed Precip Events Conditions
12:15 AM 47.5 °F - 42.4 °F 83% 30.04 in 10.0 mi NW 15.0 mph - N/A   Overcast
12:35 AM 47.5 °F - 42.3 °F 82% 30.05 in 10.0 mi NW 15.0 mph - N/A   Overcast
12:55 AM 47.5 °F - 42.3 °F 82% 30.08 in 10.0 mi NW 15.0 mph 19.6 mph N/A   Overcast
1:15 AM 47.5 °F - 42.3 °F 82% 30.09 in 10.0 mi NW 11.5 mph 19.6 mph N/A   Overcast
1:35 AM 47.5 °F - 42.3 °F 82% 30.10 in 10.0 mi NW 12.7 mph - N/A   Overcast
1:55 AM 47.5 °F - 41.9 °F 81% 30.09 in 10.0 mi NW 17.3 mph - N/A   Overcast
2:15 AM 47.5 °F - 41.2 °F 79% 30.09 in 10.0 mi NW 23.0 mph 26.5 mph N/A   Overcast
2:35 AM 47.3 °F - 40.5 °F 77% 30.09 in 10.0 mi NNW 19.6 mph 26.5 mph N/A   Overcast
2:55 AM 47.3 °F - 40.8 °F 78% 30.09 in 10.0 mi NW 17.3 mph 24.2 mph N/A   Overcast
3:15 AM 47.3 °F - 40.8 °F 78% 30.09 in 10.0 mi NW 19.6 mph - N/A   Overcast
3:35 AM 47.1 °F - 40.3 °F 77% 30.08 in 10.0 mi NW 16.1 mph 24.2 mph N/A   Overcast
3:55 AM 46.9 °F - 40.5 °F 78% 30.08 in 10.0 mi NNW 12.7 mph 21.9 mph N/A   Overcast
4:15 AM 46.8 °F - 40.3 °F 78% 30.08 in 10.0 mi NW 13.8 mph 23.0 mph N/A   Overcast
4:35 AM 46.6 °F - 41.0 °F 81% 30.09 in 10.0 mi NW 11.5 mph - N/A   Overcast
4:55 AM 46.4 °F 39.8 °F 40.1 °F 79% 30.10 in 10.0 mi NW 16.1 mph - N/A   Overcast
5:15 AM 45.0 °F 39.3 °F 39.7 °F 82% 30.11 in 10.0 mi NW 11.5 mph - N/A   Mostly Cloudy
5:35 AM 43.9 °F 39.3 °F 39.4 °F 84% 30.11 in 10.0 mi NW 8.1 mph - N/A   Scattered Clouds
5:55 AM 43.2 °F 38.4 °F 39.4 °F 86% 30.11 in 10.0 mi WNW 8.1 mph - N/A   Clear
6:15 AM 43.3 °F 38.1 °F 39.4 °F 86% 30.11 in 10.0 mi NW 9.2 mph - N/A   Clear
6:35 AM 43.3 °F 37.2 °F 39.0 °F 85% 30.13 in 10.0 mi NW 11.5 mph - N/A   Clear
6:55 AM 43.9 °F 37.9 °F 38.7 °F 82% 30.14 in 10.0 mi NW 11.5 mph - N/A   Clear
8:15 AM 48.0 °F - 36.5 °F 64% 30.15 in 10.0 mi NNW 13.8 mph 21.9 mph N/A   Clear
8:35 AM 48.6 °F - 35.2 °F 60% 30.15 in 10.0 mi NNW 17.3 mph 23.0 mph N/A   Clear
8:55 AM 48.9 °F - 34.5 °F 58% 30.16 in 10.0 mi NNW 15.0 mph 24.2 mph N/A   Clear
9:15 AM 50.9 °F - 34.9 °F 54% 30.16 in 10.0 mi NNW 17.3 mph 23.0 mph N/A   Clear
10:55 AM 55.8 °F - 32.9 °F 42% 30.22 in 10.0 mi North 16.1 mph 21.9 mph N/A   Scattered Clouds
11:35 AM 56.1 °F - 33.6 °F 43% 30.24 in 10.0 mi NNW 11.5 mph 19.6 mph N/A   Mostly Cloudy
12:15 PM 55.6 °F - 33.1 °F 43% 30.24 in 10.0 mi NNW 13.8 mph 21.9 mph N/A   Mostly Cloudy
12:35 PM 56.8 °F - 32.0 °F 39% 30.24 in 10.0 mi NNW 13.8 mph 24.2 mph N/A   Mostly Cloudy
12:55 PM 56.5 °F - 32.2 °F 40% 30.23 in 10.0 mi NNW 15.0 mph 24.2 mph N/A   Mostly Cloudy
1:15 PM 58.1 °F - 33.1 °F 39% 30.23 in 10.0 mi NW 21.9 mph 27.6 mph N/A   Mostly Cloudy
1:35 PM 57.2 °F - 32.9 °F 40% 30.23 in 10.0 mi NW 16.1 mph 24.2 mph N/A   Mostly Cloudy
1:55 PM 58.5 °F - 34.0 °F 40% 30.23 in 10.0 mi NNW 13.8 mph 26.5 mph N/A   Mostly Cloudy
2:15 PM 59.0 °F - 32.4 °F 37% 30.22 in 10.0 mi NNW 17.3 mph 23.0 mph N/A   Scattered Clouds
2:35 PM 60.3 °F - 32.2 °F 35% 30.22 in 10.0 mi NNW 12.7 mph 26.5 mph N/A   Scattered Clouds
2:55 PM 59.5 °F - 32.2 °F 36% 30.22 in 10.0 mi NW 15.0 mph 24.2 mph N/A   Scattered Clouds
3:15 PM 59.5 °F - 32.0 °F 35% 30.21 in 10.0 mi NNW 15.0 mph 26.5 mph N/A   Mostly Cloudy
3:35 PM 61.0 °F - 31.8 °F 33% 30.21 in 10.0 mi NW 16.1 mph - N/A   Scattered Clouds
3:55 PM 60.1 °F - 31.3 °F 34% 30.21 in 10.0 mi NNW 13.8 mph 18.4 mph N/A   Mostly Cloudy
4:15 PM 60.6 °F - 32.0 °F 34% 30.21 in 10.0 mi NW 17.3 mph 21.9 mph N/A   Scattered Clouds
4:35 PM 60.3 °F - 30.9 °F 33% 30.21 in 10.0 mi NW 13.8 mph 19.6 mph N/A   Scattered Clouds
4:55 PM 60.6 °F - 30.7 °F 32% 30.21 in 10.0 mi NNW 16.1 mph 20.7 mph N/A   Scattered Clouds
5:15 PM 61.7 °F - 31.5 °F 32% 30.21 in 10.0 mi NW 13.8 mph 20.7 mph N/A   Mostly Cloudy
5:35 PM 60.3 °F - 30.6 °F 33% 30.21 in 10.0 mi NNW 16.1 mph 20.7 mph N/A   Scattered Clouds
5:55 PM 60.3 °F - 28.9 °F 31% 30.21 in 10.0 mi NNW 11.5 mph 19.6 mph N/A   Scattered Clouds
6:15 PM 60.1 °F - 30.6 °F 33% 30.21 in 10.0 mi NNW 15.0 mph 20.7 mph N/A   Scattered Clouds
6:35 PM 60.8 °F - 30.6 °F 32% 30.21 in 10.0 mi NW 13.8 mph 17.3 mph N/A   Scattered Clouds
7:15 PM 58.5 °F - 30.4 °F 34% 30.22 in 10.0 mi NNW 11.5 mph 18.4 mph N/A   Mostly Cloudy
7:35 PM 57.4 °F - 28.6 °F 33% 30.22 in 10.0 mi NNW 15.0 mph 18.4 mph N/A   Scattered Clouds
7:55 PM 55.8 °F - 30.2 °F 38% 30.23 in 10.0 mi NNW 10.4 mph - N/A   Clear
8:15 PM 54.9 °F - 30.4 °F 39% 30.24 in 10.0 mi North 4.6 mph - N/A   Clear
8:35 PM 53.2 °F - 32.4 °F 45% 30.25 in 10.0 mi NNW 4.6 mph - N/A   Clear
8:55 PM 52.0 °F - 32.7 °F 48% 30.26 in 10.0 mi Calm Calm - N/A   Clear
9:15 PM 52.5 °F - 32.0 °F 46% 30.26 in 10.0 mi NNW 3.5 mph - N/A   Clear
9:35 PM 51.8 °F - 32.0 °F 47% 30.28 in 10.0 mi Calm Calm - N/A   Clear
9:55 PM 52.5 °F - 30.9 °F 44% 30.28 in 10.0 mi Calm Calm - N/A   Clear
10:15 PM 51.3 °F - 31.1 °F 46% 30.28 in 10.0 mi Calm Calm - N/A   Clear
10:35 PM 51.8 °F - 30.9 °F 45% 30.28 in 10.0 mi North 3.5 mph - N/A   Clear
10:55 PM 51.1 °F - 31.6 °F 47% 30.28 in 10.0 mi Calm Calm - N/A   Clear
11:15 PM 50.0 °F - 32.0 °F 50% 30.28 in 10.0 mi North 3.5 mph - N/A   Clear
11:35 PM 48.6 °F - 33.1 °F 55% 30.29 in 10.0 mi Calm Calm - N/A   Clear
11:55 PM 47.7 °F - 33.3 °F 57% 30.28 in 10.0 mi NNW 3.5 mph - N/A   Clear